(298688) = 2004 DQ46

Discovered at Socorro on 2004-02-19 by LINEAR.

Orbit

Orbit type: Main Belt

Note: WebGL enabled browser required.

epoch2024-03-31.0
epoch JD2460400.5
perihelion date2026-11-20.84130
perihelion JD2461365.34130
argument of perihelion (°)18.81369
ascending node (°)216.53972
inclination (°)4.72480
eccentricity0.1800076
perihelion distance (AU)2.5538511
Tisserand w.r.t. Jupiter3.2
ΔV w.r.t. Earth (km/sec)10.1
semimajor axis (AU)3.1144813
mean anomaly (°)186.98604
mean daily motion (°/day)0.17931860
aphelion distance (AU)3.675
period (years)5.5
P-vector [x]-0.56916533
P-vector [y]-0.76454757
P-vector [z]-0.30251916
Q-vector [x]0.82075926
Q-vector [y]-0.55024357
Q-vector [z]-0.15357815
absolute magnitude16.25
phase slope0.15
uncertainty0
referenceMPEC 2024-C40
observations used281
oppositions14
arc length (days)8462
first opposition used2000
last opposition used2023
residual rms (arc-secs)0.75
perturbers coarse indicatorM-v
perturbers precise indicator003Ek
first observation date used2000-09-03.0
last observation date used2023-11-04.0
computer nameMPCLINUX
JD of orbit computation2455827.685050
perihelion JD uncertainty (days)1.1031E-04
argument of perihelion uncertainty (°)8.4415E-05
ascending node uncertainty (°)8.0886E-05
inclination uncertainty (°)6.3637E-06
eccentricity uncertainty 6.3886E-08
perihelion distance uncertainty (AU)1.9721E-07
Minimum Orbit Intersection Distances (in AU)
for orbit epoch: 2460200.5, reference: E2024-C40
Mercury2.10134
Venus1.83633
Earth1.54923
Mars0.99425
Jupiter1.3208
Saturn5.43022
Uranus15.3985
Neptune26.1911

Observations

288 total observations over interval: 2000 09 03.230900 – 2023 11 04.358300
These data are available for download (format description).

Date (UT) J2000 RA J2000 Dec Magn Location Ref
2000 09 03.230900 21 37 46.775 -07 22 26.29 20.60 V 645 – Apache Point-Sloan Digital Sky Survey MPS 286889
2000 09 03.234372 21 37 46.635 -07 22 27.32 21.28   645 – Apache Point-Sloan Digital Sky Survey MPS 286889
2001 10 15.35487 02 05 57.56 +13 34 32.9 22.3 V 691 – Steward Observatory, Kitt Peak-Spacewatch MPS 196347
2001 10 15.37695 02 05 56.59 +13 34 27.1 22.6 V 691 – Steward Observatory, Kitt Peak-Spacewatch MPS 196347
2001 10 15.39910 02 05 55.61 +13 34 20.5 22.4 V 691 – Steward Observatory, Kitt Peak-Spacewatch MPS 196347
2004 02 19.30553 10 41 49.40 +01 33 07.0 19.4   704 – Lincoln Laboratory ETS, New Mexico MPS 100286
2004 02 19.33517 10 41 48.07 +01 33 14.2 19.9   704 – Lincoln Laboratory ETS, New Mexico MPS 100286
2004 02 19.34830 10 41 47.47 +01 33 19.1 19.7   704 – Lincoln Laboratory ETS, New Mexico MPS 100286
2004 02 23.29467 10 38 50.30 +01 52 10.9 19.5 C 704 – Lincoln Laboratory ETS, New Mexico MPS 293187
2004 02 23.30759 10 38 49.74 +01 52 15.3 19.5 C 704 – Lincoln Laboratory ETS, New Mexico MPS 293187
2004 02 23.31972 10 38 49.13 +01 52 18.8 19.6 C 704 – Lincoln Laboratory ETS, New Mexico MPS 293187
2004 02 23.33226 10 38 48.51 +01 52 23.0 19.8 C 704 – Lincoln Laboratory ETS, New Mexico MPS 293187
2004 02 26.30267 10 36 31.73 +02 07 34.8 20.2   704 – Lincoln Laboratory ETS, New Mexico MPS 100286
2004 02 26.32686 10 36 30.51 +02 07 43.5 20.1   704 – Lincoln Laboratory ETS, New Mexico MPS 100286
2004 02 26.33877 10 36 29.92 +02 07 47.4 20.3   704 – Lincoln Laboratory ETS, New Mexico MPS 100286
2004 03 18.30449 10 21 09.13 +04 05 33.1 20.1   704 – Lincoln Laboratory ETS, New Mexico MPS 101270
2004 03 18.31620 10 21 08.73 +04 05 37.6 20.0   704 – Lincoln Laboratory ETS, New Mexico MPS 101270
2004 03 18.32817 10 21 08.11 +04 05 40.5 20.3   704 – Lincoln Laboratory ETS, New Mexico MPS 101270
2004 03 18.33966 10 21 07.74 +04 05 45.4 20.0   704 – Lincoln Laboratory ETS, New Mexico MPS 101270
2006 09 17.28222 00 28 18.75 +06 55 15.2 21.3 V 691 – Steward Observatory, Kitt Peak-Spacewatch MPS 196347
2006 09 17.29962 00 28 17.99 +06 55 10.0 21.2 V 691 – Steward Observatory, Kitt Peak-Spacewatch MPS 196347
2006 09 17.31694 00 28 17.25 +06 55 04.7 21.0 V 691 – Steward Observatory, Kitt Peak-Spacewatch MPS 196347
2006 09 25.20949 00 22 43.58 +06 13 29.0 21.3 V 691 – Steward Observatory, Kitt Peak-Spacewatch MPS 196347
2006 09 25.22691 00 22 42.82 +06 13 23.7 21.0 V 691 – Steward Observatory, Kitt Peak-Spacewatch MPS 196347
2006 09 25.24433 00 22 42.05 +06 13 17.8 21.3 V 691 – Steward Observatory, Kitt Peak-Spacewatch MPS 196347
2010 02 01.695551 14 44 26.09 -17 21 28.2   C51 – WISE MPS 341744
2010 02 01.695678 14 44 26.17 -17 21 28.6   C51 – WISE MPS 341744
2010 02 01.827983 14 44 35.07 -17 22 01.0   C51 – WISE MPS 341744
2010 02 01.960287 14 44 43.91 -17 22 34.1   C51 – WISE MPS 341744
2010 02 02.092591 14 44 52.88 -17 23 07.3   C51 – WISE MPS 341745
2010 02 02.224896 14 45 01.72 -17 23 39.1   C51 – WISE MPS 341745
2010 02 02.225023 14 45 01.81 -17 23 38.6   C51 – WISE MPS 341745
2010 02 02.489632 14 45 19.38 -17 24 43.8   C51 – WISE MPS 341745
2010 02 02.555847 14 45 23.78 -17 25 00.0   C51 – WISE MPS 341745
2010 02 02.688152 14 45 32.59 -17 25 33.5   C51 – WISE MPS 341745
2010 02 02.820456 14 45 41.45 -17 26 04.5   C51 – WISE MPS 341745
2010 02 03.085065 14 45 58.96 -17 27 09.0   C51 – WISE MPS 341745
2010 02 03.085192 14 45 58.95 -17 27 07.9   C51 – WISE MPS 341745
2010 05 18.401801 14 48 45.410 -14 31 46.89 19.85 r F51 – Pan-STARRS 1, Haleakala MPS 337313
2010 05 18.412559 14 48 44.945 -14 31 43.58 19.98 r F51 – Pan-STARRS 1, Haleakala MPS 337313
2010 05 20.23666 14 47 30.94 -14 22 27.9 19.3 V G96 – Mt. Lemmon Survey MPS 327329
2010 05 20.24257 14 47 30.69 -14 22 26.1 19.4 V G96 – Mt. Lemmon Survey MPS 327329
2010 05 20.24854 14 47 30.44 -14 22 24.3 19.4 V G96 – Mt. Lemmon Survey MPS 327329
2010 05 20.25453 14 47 30.19 -14 22 22.4 19.4 V G96 – Mt. Lemmon Survey MPS 327329
2010 08 03.449087 14 59 20.29 -13 58 53.4   C51 – WISE MPS 344834
2010 08 03.978303 14 59 51.05 -14 00 54.4   C51 – WISE MPS 344834
2010 08 04.044391 14 59 54.97 -14 01 09.1   C51 – WISE MPS 344834
2010 08 04.110606 14 59 58.71 -14 01 24.6   C51 – WISE MPS 344834
2010 08 04.176694 15 00 02.60 -14 01 39.8   C51 – WISE MPS 344834
2010 08 04.242911 15 00 06.48 -14 01 55.8   C51 – WISE MPS 344834
2010 08 04.308999 15 00 10.36 -14 02 11.5   C51 – WISE MPS 344834
2010 08 04.375214 15 00 14.24 -14 02 26.0   C51 – WISE MPS 344834
2010 08 04.441302 15 00 18.09 -14 02 41.8   C51 – WISE MPS 344834
2010 08 04.573606 15 00 25.90 -14 03 12.4   C51 – WISE MPS 344834
2010 08 04.705910 15 00 33.62 -14 03 41.8   C51 – WISE MPS 344834
2011 08 30.35609 22 23 19.551 -03 32 57.04 20.5 g F51 – Pan-STARRS 1, Haleakala MPS 389150
2011 08 30.36767 22 23 19.030 -03 33 00.72 20.4 g F51 – Pan-STARRS 1, Haleakala MPS 389150
2011 08 30.38006 22 23 18.452 -03 33 04.65 20.3 r F51 – Pan-STARRS 1, Haleakala MPS 389150
2011 08 30.39116 22 23 17.940 -03 33 08.15 20.4 r F51 – Pan-STARRS 1, Haleakala MPS 389150
2011 09 06.46925 22 18 09.812 -04 10 08.66 20.4 i F51 – Pan-STARRS 1, Haleakala MPS 391087
2011 09 06.47983 22 18 09.336 -04 10 12.03 20.5 i F51 – Pan-STARRS 1, Haleakala MPS 391087
2015 02 19.33352 11 31 54.70 -02 52 04.4   691 – Steward Observatory, Kitt Peak-Spacewatch MPS 582941
2015 02 19.35261 11 31 54.03 -02 52 00.3   691 – Steward Observatory, Kitt Peak-Spacewatch MPS 582941
2015 02 19.37171 11 31 53.35 -02 51 56.0   691 – Steward Observatory, Kitt Peak-Spacewatch MPS 582941
2015 02 24.44593 11 28 49.407 -02 31 54.64 20.2 w F51 – Pan-STARRS 1, Haleakala MPS 585460
2015 02 24.46019 11 28 48.832 -02 31 51.04 20.2 w F51 – Pan-STARRS 1, Haleakala MPS 585460
2015 02 24.47448 11 28 48.255 -02 31 47.32 20.2 w F51 – Pan-STARRS 1, Haleakala MPS 585460
2015 02 24.48876 11 28 47.680 -02 31 43.59 20.2 w F51 – Pan-STARRS 1, Haleakala MPS 585460
2015 02 25.46663 11 28 09.678 -02 27 25.70 19.9 w F51 – Pan-STARRS 1, Haleakala MPS 585460
2015 02 25.48058 11 28 09.105 -02 27 21.94 19.9 w F51 – Pan-STARRS 1, Haleakala MPS 585460
2015 02 25.49453 11 28 08.528 -02 27 18.29 20.0 w F51 – Pan-STARRS 1, Haleakala MPS 585460
2015 02 27.29847 11 26 56.58 -02 19 02.6 20.2 V 691 – Steward Observatory, Kitt Peak-Spacewatch MPS 585460
2015 02 27.31767 11 26 55.76 -02 18 57.0 20.2 V 691 – Steward Observatory, Kitt Peak-Spacewatch MPS 585460
2015 02 27.33681 11 26 54.95 -02 18 52.0 20.3 V 691 – Steward Observatory, Kitt Peak-Spacewatch MPS 585460
2015 03 16.21369 11 14 35.13 -00 45 01.3 19.8 V 703 – Catalina Sky Survey MPS 591864
2015 03 16.22795 11 14 34.41 -00 44 57.8 19.4 V 703 – Catalina Sky Survey MPS 591864
2015 03 16.25566 11 14 33.10 -00 44 46.5 19.9 V G96 – Mt. Lemmon Survey MPS 591864
2015 03 16.26023 11 14 32.87 -00 44 44.9 19.9 V G96 – Mt. Lemmon Survey MPS 591864
2015 03 16.26480 11 14 32.68 -00 44 43.1 19.9 V G96 – Mt. Lemmon Survey MPS 591864
2015 03 16.26937 11 14 32.47 -00 44 41.6 20.0 V G96 – Mt. Lemmon Survey MPS 591864
2015 03 22.39466 11 10 05.815 -00 06 47.57 19.9 w F51 – Pan-STARRS 1, Haleakala MPS 594933
2015 03 22.40854 11 10 05.202 -00 06 42.37 19.9 w F51 – Pan-STARRS 1, Haleakala MPS 594933
2015 03 22.42237 11 10 04.593 -00 06 37.30 19.8 w F51 – Pan-STARRS 1, Haleakala MPS 594933
2015 03 22.43617 11 10 03.987 -00 06 32.17 19.9 w F51 – Pan-STARRS 1, Haleakala MPS 594934
2015 03 28.29074 11 06 09.27 +00 29 16.2 20.6 V 703 – Catalina Sky Survey MPS 597498
2015 03 28.29947 11 06 08.92 +00 29 19.2 20.4 V 703 – Catalina Sky Survey MPS 597498
2015 03 28.31702 11 06 08.18 +00 29 23.9 20.4 V 703 – Catalina Sky Survey MPS 597498
2016 06 07.38424 19 57 14.01 -14 18 37.9 20.6 V G96 – Mt. Lemmon Survey MPS 716384
2016 06 07.39154 19 57 13.87 -14 18 37.2 21.2 V G96 – Mt. Lemmon Survey MPS 716384
2016 06 07.39715 19 57 13.74 -14 18 36.9 20.6 V G96 – Mt. Lemmon Survey MPS 716384
2016 06 07.40276 19 57 13.61 -14 18 36.2 21.2 V G96 – Mt. Lemmon Survey MPS 716384
2016 07 05.29911 19 40 39.69 -14 14 15.4 19.8 V G96 – Mt. Lemmon Survey MPS 719157
2016 07 05.30603 19 40 39.31 -14 14 15.1   G96 – Mt. Lemmon Survey MPS 719157
2016 07 05.31295 19 40 39.00 -14 14 15.8 19.8 V G96 – Mt. Lemmon Survey MPS 719157
